Zurück zum Katalog

THORAD DELTA 1 R/B(2)

AktivGTO
NORAD 9330·ROCKET BODY·🇺🇸 United States

Gestartet Dec 19, 1974 von Cape Canaveral Space Force Station

Loading…

TLE

AlterndSource: Space-Track

Epoche: Sep 14, 2026, 11:31 UTC

1 09330U 74101G   26257.47988771  .00000340  00000-0  94581-3 0  9998
2 09330  13.0003 282.0430 7195316 342.5812   2.0217  2.31324245421117

Verfolge THORAD DELTA 1 R/B(2) in Echtzeit mit AllMySat

Download on the App Store